Location: Raitis
(47.2167°N, 11.3833°E)
Time: 05:09:17
(UTC+00:00)

Okean-O - Pass Details

Date: 03 March 2021
Orbit: 639 x 640 km, 98.2° (Epoch: 22 April)

Event Time Altitude Azimuth Distance (km) Brightness Sun altitude
Rises 18:21:25 0° 180° (S) 2,932 6.0 -14.1°
Reaches altitude 10° 18:23:41 10° 186° (S) 2,028 5.2 -14.5°
Maximum altitude 18:27:57 47° 260° (W) 848 3.7 -15.2°
Drops below altitude 10° 18:32:15 10° 335° (NNW) 2,044 5.6 -16.0°
Sets 18:34:33 0° 342° (NNW) 2,958 6.4 -16.3°
